Year,Month,Day,Hour,Minute,Value (Times are PST for temperature in C)
2019,11,28,00,00,20.10
2019,11,28,00,01,20.10
2019,11,28,00,02,20.00
2019,11,28,00,03,20.00
2019,11,28,00,04,19.90
2019,11,28,00,05,19.90
2019,11,28,00,06,19.80
2019,11,28,00,07,19.80
2019,11,28,00,08,19.70
2019,11,28,00,09,19.70
2019,11,28,00,10,19.70
2019,11,28,00,11,19.70
2019,11,28,00,12,19.70
2019,11,28,00,13,19.70
2019,11,28,00,14,19.70
2019,11,28,00,15,19.70
2019,11,28,00,16,19.80
2019,11,28,00,17,19.90
2019,11,28,00,18,19.90
2019,11,28,00,19,20.00
2019,11,28,00,20,20.00
2019,11,28,00,21,20.10
2019,11,28,00,22,20.10
2019,11,28,00,23,20.20
2019,11,28,00,24,20.30
2019,11,28,00,25,20.40
2019,11,28,00,26,20.50
2019,11,28,00,27,20.50
2019,11,28,00,28,20.50
2019,11,28,00,29,20.60
2019,11,28,00,30,20.60
2019,11,28,00,31,20.60
2019,11,28,00,32,20.60
2019,11,28,00,33,20.60
2019,11,28,00,34,20.60
2019,11,28,00,35,20.70
2019,11,28,00,36,20.70
2019,11,28,00,37,20.70
2019,11,28,00,38,20.70
2019,11,28,00,39,20.60
2019,11,28,00,40,20.60
2019,11,28,00,41,20.60
2019,11,28,00,42,20.50
2019,11,28,00,43,20.50
2019,11,28,00,44,20.40
2019,11,28,00,45,20.40
2019,11,28,00,46,20.30
2019,11,28,00,47,20.30
2019,11,28,00,48,20.10
2019,11,28,00,49,20.00
2019,11,28,00,50,19.90
2019,11,28,00,51,20.00
2019,11,28,00,52,20.00
2019,11,28,00,53,20.10
2019,11,28,00,54,20.10
2019,11,28,00,55,20.00
2019,11,28,00,56,20.00
2019,11,28,00,57,20.00
2019,11,28,00,58,20.00
2019,11,28,00,59,20.10
2019,11,28,01,00,20.10
2019,11,28,01,01,20.20
2019,11,28,01,02,20.20
2019,11,28,01,03,20.20
2019,11,28,01,04,20.30
2019,11,28,01,05,20.30
2019,11,28,01,06,20.30
2019,11,28,01,07,20.30
2019,11,28,01,08,20.30
2019,11,28,01,09,20.30
2019,11,28,01,10,20.30
2019,11,28,01,11,20.30
2019,11,28,01,12,20.30
2019,11,28,01,13,20.20
2019,11,28,01,14,20.20
2019,11,28,01,15,20.20
2019,11,28,01,16,20.10
2019,11,28,01,17,20.10
2019,11,28,01,18,20.10
2019,11,28,01,19,20.10
2019,11,28,01,20,20.00
2019,11,28,01,21,20.00
2019,11,28,01,22,20.00
2019,11,28,01,23,20.00
2019,11,28,01,24,20.00
2019,11,28,01,25,20.00
2019,11,28,01,26,20.10
2019,11,28,01,27,20.10
2019,11,28,01,28,20.10
2019,11,28,01,29,20.10
2019,11,28,01,30,20.10
2019,11,28,01,31,20.10
2019,11,28,01,32,20.10
2019,11,28,01,33,20.10
2019,11,28,01,34,20.10
2019,11,28,01,35,20.00
2019,11,28,01,36,20.00
2019,11,28,01,37,20.00
2019,11,28,01,38,20.00
2019,11,28,01,39,20.10
2019,11,28,01,40,20.10
2019,11,28,01,41,20.10
2019,11,28,01,42,20.10
2019,11,28,01,43,20.10
2019,11,28,01,44,20.10
2019,11,28,01,45,20.10
2019,11,28,01,46,20.10
2019,11,28,01,47,20.20
2019,11,28,01,48,20.20
2019,11,28,01,49,20.20
2019,11,28,01,50,20.20
2019,11,28,01,51,20.20
2019,11,28,01,52,20.20
2019,11,28,01,53,20.10
2019,11,28,01,54,20.10
2019,11,28,01,55,20.00
2019,11,28,01,56,20.10
2019,11,28,01,57,20.10
2019,11,28,01,58,20.10
2019,11,28,01,59,20.20
2019,11,28,02,00,20.20
2019,11,28,02,01,20.20
2019,11,28,02,02,20.10
2019,11,28,02,03,20.10
2019,11,28,02,04,20.00
2019,11,28,02,05,20.00
2019,11,28,02,06,19.90
2019,11,28,02,07,19.90
2019,11,28,02,08,19.90
2019,11,28,02,09,19.90
2019,11,28,02,10,19.90
2019,11,28,02,11,19.80
2019,11,28,02,12,19.80
2019,11,28,02,13,19.80
2019,11,28,02,14,19.80
2019,11,28,02,15,19.90
2019,11,28,02,16,19.90
2019,11,28,02,17,19.90
2019,11,28,02,18,19.90
2019,11,28,02,19,19.90
2019,11,28,02,20,19.90
2019,11,28,02,21,19.90
2019,11,28,02,22,19.90
2019,11,28,02,23,19.90
2019,11,28,02,24,19.90
2019,11,28,02,25,19.90
2019,11,28,02,26,19.80
2019,11,28,02,27,19.80
2019,11,28,02,28,19.70
2019,11,28,02,29,19.70
2019,11,28,02,30,19.70
2019,11,28,02,31,19.70
2019,11,28,02,32,19.70
2019,11,28,02,33,19.80
2019,11,28,02,34,19.80
2019,11,28,02,35,19.80
2019,11,28,02,36,19.80
2019,11,28,02,37,19.80
2019,11,28,02,38,19.80
2019,11,28,02,39,19.90
2019,11,28,02,40,20.00
2019,11,28,02,41,20.00
2019,11,28,02,42,20.10
2019,11,28,02,43,20.10
2019,11,28,02,44,20.10
2019,11,28,02,45,20.10
2019,11,28,02,46,20.10
2019,11,28,02,47,20.00
2019,11,28,02,48,20.00
2019,11,28,02,49,19.90
2019,11,28,02,50,19.80
2019,11,28,02,51,19.80
2019,11,28,02,52,19.80
2019,11,28,02,53,19.80
2019,11,28,02,54,19.70
2019,11,28,02,55,19.70
2019,11,28,02,56,19.60
2019,11,28,02,57,19.60
2019,11,28,02,58,19.50
2019,11,28,02,59,19.40
2019,11,28,03,00,19.30
2019,11,28,03,01,19.20
2019,11,28,03,02,19.10
2019,11,28,03,03,19.10
2019,11,28,03,04,19.10
2019,11,28,03,05,19.10
2019,11,28,03,06,19.20
2019,11,28,03,07,19.20
2019,11,28,03,08,19.20
2019,11,28,03,09,19.20
2019,11,28,03,10,19.30
2019,11,28,03,11,19.40
2019,11,28,03,12,19.50
2019,11,28,03,13,19.60
2019,11,28,03,14,19.60
2019,11,28,03,15,19.60
2019,11,28,03,16,19.60
2019,11,28,03,17,19.70
2019,11,28,03,18,19.70
2019,11,28,03,19,19.70
2019,11,28,03,20,19.70
2019,11,28,03,21,19.70
2019,11,28,03,22,19.70
2019,11,28,03,23,19.70
2019,11,28,03,24,19.70
2019,11,28,03,25,19.80
2019,11,28,03,26,19.80
2019,11,28,03,27,19.90
2019,11,28,03,28,19.90
2019,11,28,03,29,19.90
2019,11,28,03,30,19.90
2019,11,28,03,31,19.90
2019,11,28,03,32,20.00
2019,11,28,03,33,20.00
2019,11,28,03,34,20.10
2019,11,28,03,35,20.10
2019,11,28,03,36,20.10
2019,11,28,03,37,20.10
2019,11,28,03,38,20.10
2019,11,28,03,39,20.00
2019,11,28,03,40,20.00
2019,11,28,03,41,19.90
2019,11,28,03,42,20.00
2019,11,28,03,43,20.00
2019,11,28,03,44,20.10
2019,11,28,03,45,20.00
2019,11,28,03,46,20.00
2019,11,28,03,47,20.00
2019,11,28,03,48,19.90
2019,11,28,03,49,19.90
2019,11,28,03,50,19.90
2019,11,28,03,51,19.80
2019,11,28,03,52,19.80
2019,11,28,03,53,19.80
2019,11,28,03,54,19.80
2019,11,28,03,55,19.80
2019,11,28,03,56,19.80
2019,11,28,03,57,19.80
2019,11,28,03,58,19.70
2019,11,28,03,59,19.70
2019,11,28,04,00,19.80
2019,11,28,04,01,19.80
2019,11,28,04,02,19.80
2019,11,28,04,03,19.80
2019,11,28,04,04,19.80
2019,11,28,04,05,19.80
2019,11,28,04,06,19.80
2019,11,28,04,07,19.70
2019,11,28,04,08,19.70
2019,11,28,04,09,19.60
2019,11,28,04,10,19.60
2019,11,28,04,11,19.50
2019,11,28,04,12,19.40
2019,11,28,04,13,19.30
2019,11,28,04,14,19.20
2019,11,28,04,15,19.00
2019,11,28,04,16,18.90
2019,11,28,04,17,18.80
2019,11,28,04,18,18.70
2019,11,28,04,19,18.60
2019,11,28,04,20,18.40
2019,11,28,04,21,18.30
2019,11,28,04,22,18.20
2019,11,28,04,23,18.10
2019,11,28,04,24,18.10
2019,11,28,04,25,18.10
2019,11,28,04,26,18.20
2019,11,28,04,27,18.30
2019,11,28,04,28,18.30
2019,11,28,04,29,18.30
2019,11,28,04,30,18.30
2019,11,28,04,31,18.20
2019,11,28,04,32,18.20
2019,11,28,04,33,18.10
2019,11,28,04,34,18.00
2019,11,28,04,35,18.00
2019,11,28,04,36,17.90
2019,11,28,04,37,17.80
2019,11,28,04,38,17.80
2019,11,28,04,39,17.80
2019,11,28,04,40,17.70
2019,11,28,04,41,17.70
2019,11,28,04,42,17.70
2019,11,28,04,43,17.60
2019,11,28,04,44,17.60
2019,11,28,04,45,17.50
2019,11,28,04,46,17.50
2019,11,28,04,47,17.50
2019,11,28,04,48,17.50
2019,11,28,04,49,17.40
2019,11,28,04,50,17.40
2019,11,28,04,51,17.40
2019,11,28,04,52,17.40
2019,11,28,04,53,17.30
2019,11,28,04,54,17.30
2019,11,28,04,55,17.20
2019,11,28,04,56,17.10
2019,11,28,04,57,17.00
2019,11,28,04,58,16.90
2019,11,28,04,59,16.80
2019,11,28,05,00,16.70
2019,11,28,05,01,16.60
2019,11,28,05,02,16.50
2019,11,28,05,03,16.40
2019,11,28,05,04,16.30
2019,11,28,05,05,16.20
2019,11,28,05,06,16.20
2019,11,28,05,07,16.10
2019,11,28,05,08,16.00
2019,11,28,05,09,16.00
2019,11,28,05,10,15.90
2019,11,28,05,11,15.80
2019,11,28,05,12,15.70
2019,11,28,05,13,15.70
2019,11,28,05,14,15.70
2019,11,28,05,15,15.60
2019,11,28,05,16,15.60
2019,11,28,05,17,15.60
2019,11,28,05,18,15.60
2019,11,28,05,19,15.60
2019,11,28,05,20,15.60
2019,11,28,05,21,15.60
2019,11,28,05,22,15.50
2019,11,28,05,23,15.50
2019,11,28,05,24,15.50
2019,11,28,05,25,15.40
2019,11,28,05,26,15.40
2019,11,28,05,27,15.40
2019,11,28,05,28,15.30
2019,11,28,05,29,15.40
2019,11,28,05,30,15.40
2019,11,28,05,31,15.40
2019,11,28,05,32,15.40
2019,11,28,05,33,15.50
2019,11,28,05,34,15.60
2019,11,28,05,35,15.70
2019,11,28,05,36,15.80
2019,11,28,05,37,15.80
2019,11,28,05,38,15.90
2019,11,28,05,39,15.90
2019,11,28,05,40,15.90
2019,11,28,05,41,15.90
2019,11,28,05,42,15.90
2019,11,28,05,43,15.90
2019,11,28,05,44,15.90
2019,11,28,05,45,15.90
2019,11,28,05,46,15.90
2019,11,28,05,47,15.80
2019,11,28,05,48,15.80
2019,11,28,05,49,15.80
2019,11,28,05,50,15.90
2019,11,28,05,51,15.90
2019,11,28,05,52,15.90
2019,11,28,05,53,15.90
2019,11,28,05,54,15.90
2019,11,28,05,55,15.90
2019,11,28,05,56,15.90
2019,11,28,05,57,16.00
2019,11,28,05,58,16.00
2019,11,28,05,59,16.00
2019,11,28,06,00,16.00
2019,11,28,06,01,15.90
2019,11,28,06,02,16.00
2019,11,28,06,03,16.00
2019,11,28,06,04,16.10
2019,11,28,06,05,16.20
2019,11,28,06,06,16.20
2019,11,28,06,07,16.20
2019,11,28,06,08,16.20
2019,11,28,06,09,16.20
2019,11,28,06,10,16.20
2019,11,28,06,11,16.20
2019,11,28,06,12,16.20
2019,11,28,06,13,16.10
2019,11,28,06,14,16.10
2019,11,28,06,15,16.10
2019,11,28,06,16,16.00
2019,11,28,06,17,16.10
2019,11,28,06,18,16.10
2019,11,28,06,19,16.10
2019,11,28,06,20,16.10
2019,11,28,06,21,16.10
2019,11,28,06,22,16.20
2019,11,28,06,23,16.30
2019,11,28,06,24,16.50
2019,11,28,06,25,16.70
2019,11,28,06,26,16.80
2019,11,28,06,27,16.80
2019,11,28,06,28,16.80
2019,11,28,06,29,16.80
2019,11,28,06,30,16.70
2019,11,28,06,31,16.60
2019,11,28,06,32,16.50
2019,11,28,06,33,16.40
2019,11,28,06,34,16.30
2019,11,28,06,35,16.30
2019,11,28,06,36,16.30
2019,11,28,06,37,16.40
2019,11,28,06,38,16.40
2019,11,28,06,39,16.50
2019,11,28,06,40,16.60
2019,11,28,06,41,16.70
2019,11,28,06,42,16.90
2019,11,28,06,43,17.10
2019,11,28,06,44,17.10
2019,11,28,06,45,17.20
2019,11,28,06,46,17.20
2019,11,28,06,47,17.20
2019,11,28,06,48,17.20
2019,11,28,06,49,17.20
2019,11,28,06,50,17.10
2019,11,28,06,51,17.00
2019,11,28,06,52,16.90
2019,11,28,06,53,16.80
2019,11,28,06,54,16.80
2019,11,28,06,55,16.70
2019,11,28,06,56,16.70
2019,11,28,06,57,16.60
2019,11,28,06,58,16.60
2019,11,28,06,59,16.50
2019,11,28,07,00,16.40
2019,11,28,07,01,16.30
2019,11,28,07,02,16.30
2019,11,28,07,03,16.20
2019,11,28,07,04,16.10
2019,11,28,07,05,16.00
2019,11,28,07,06,15.90
2019,11,28,07,07,15.90
2019,11,28,07,08,15.90
2019,11,28,07,09,16.00
2019,11,28,07,10,15.90
2019,11,28,07,11,15.90
2019,11,28,07,12,15.90
2019,11,28,07,13,15.80
2019,11,28,07,14,15.80
2019,11,28,07,15,15.80
2019,11,28,07,16,15.70
2019,11,28,07,17,15.70
2019,11,28,07,18,15.70
2019,11,28,07,19,15.70
2019,11,28,07,20,15.70
2019,11,28,07,21,15.80
2019,11,28,07,22,15.70
2019,11,28,07,23,15.70
2019,11,28,07,24,15.70
2019,11,28,07,25,15.70
2019,11,28,07,26,15.70
2019,11,28,07,27,15.70
2019,11,28,07,28,15.70
2019,11,28,07,29,15.60
2019,11,28,07,30,15.60
2019,11,28,07,31,15.60
2019,11,28,07,32,15.60
2019,11,28,07,33,15.60
2019,11,28,07,34,15.60
2019,11,28,07,35,15.70
2019,11,28,07,36,15.70
2019,11,28,07,37,15.70
2019,11,28,07,38,15.70
2019,11,28,07,39,15.80
2019,11,28,07,40,15.80
2019,11,28,07,41,15.90
2019,11,28,07,42,16.10
2019,11,28,07,43,16.20
2019,11,28,07,44,16.30
2019,11,28,07,45,16.30
2019,11,28,07,46,16.20
2019,11,28,07,47,16.10
2019,11,28,07,48,16.00
2019,11,28,07,49,16.00
2019,11,28,07,50,16.10
2019,11,28,07,51,16.10
2019,11,28,07,52,16.20
2019,11,28,07,53,16.30
2019,11,28,07,54,16.30
2019,11,28,07,55,16.30
2019,11,28,07,56,16.20
2019,11,28,07,57,16.00
2019,11,28,07,58,15.90
2019,11,28,07,59,15.80
2019,11,28,08,00,15.70
2019,11,28,08,01,15.60
2019,11,28,08,02,15.50
2019,11,28,08,03,15.40
2019,11,28,08,04,15.30
2019,11,28,08,05,15.20
2019,11,28,08,06,15.10
2019,11,28,08,07,15.00
2019,11,28,08,08,14.90
2019,11,28,08,09,14.90
2019,11,28,08,10,14.80
2019,11,28,08,11,14.80
2019,11,28,08,12,14.80
2019,11,28,08,13,14.70
2019,11,28,08,14,14.70
2019,11,28,08,15,14.70
2019,11,28,08,16,14.60
2019,11,28,08,17,14.60
2019,11,28,08,18,14.60
2019,11,28,08,19,14.60
2019,11,28,08,20,14.60
2019,11,28,08,21,14.60
2019,11,28,08,22,14.60
2019,11,28,08,23,14.60
2019,11,28,08,24,14.60
2019,11,28,08,25,14.50
2019,11,28,08,26,14.50
2019,11,28,08,27,14.50
2019,11,28,08,28,14.50
2019,11,28,08,29,14.40
2019,11,28,08,30,14.40
2019,11,28,08,31,14.40
2019,11,28,08,32,14.40
2019,11,28,08,33,14.40
2019,11,28,08,34,14.40
2019,11,28,08,35,14.40
2019,11,28,08,36,14.40
2019,11,28,08,37,14.40
2019,11,28,08,38,14.40
2019,11,28,08,39,14.30
2019,11,28,08,40,14.30
2019,11,28,08,41,14.30
2019,11,28,08,42,14.30
2019,11,28,08,43,14.30
2019,11,28,08,44,14.30
2019,11,28,08,45,14.30
2019,11,28,08,46,14.30
2019,11,28,08,47,14.30
2019,11,28,08,48,14.30
2019,11,28,08,49,14.30
2019,11,28,08,50,14.30
2019,11,28,08,51,14.30
2019,11,28,08,52,14.30
2019,11,28,08,53,14.20
2019,11,28,08,54,14.20
2019,11,28,08,55,14.10
2019,11,28,08,56,14.00
2019,11,28,08,57,14.00
2019,11,28,08,58,13.90
2019,11,28,08,59,13.90
2019,11,28,09,00,13.80
2019,11,28,09,01,13.80
2019,11,28,09,02,13.90
2019,11,28,09,03,13.90
2019,11,28,09,04,13.90
2019,11,28,09,05,14.00
2019,11,28,09,06,14.00
2019,11,28,09,07,14.00
2019,11,28,09,08,14.00
2019,11,28,09,09,13.90
2019,11,28,09,10,13.90
2019,11,28,09,11,13.90
2019,11,28,09,12,13.90
2019,11,28,09,13,13.90
2019,11,28,09,14,14.00
2019,11,28,09,15,14.00
2019,11,28,09,16,14.00
2019,11,28,09,17,14.00
2019,11,28,09,18,14.10
2019,11,28,09,19,14.10
2019,11,28,09,20,14.10
2019,11,28,09,21,14.10
2019,11,28,09,22,14.10
2019,11,28,09,23,14.10
2019,11,28,09,24,14.20
2019,11,28,09,25,14.20
2019,11,28,09,26,14.20
2019,11,28,09,27,14.20
2019,11,28,09,28,14.20
2019,11,28,09,29,14.10
2019,11,28,09,30,14.10
2019,11,28,09,31,14.20
2019,11,28,09,32,14.20
2019,11,28,09,33,14.20
2019,11,28,09,34,14.20
2019,11,28,09,35,14.20
2019,11,28,09,36,14.20
2019,11,28,09,37,14.20
2019,11,28,09,38,14.20
2019,11,28,09,39,14.20
2019,11,28,09,40,14.20
2019,11,28,09,41,14.10
2019,11,28,09,42,14.10
2019,11,28,09,43,14.10
2019,11,28,09,44,14.10
2019,11,28,09,45,14.10
2019,11,28,09,46,14.10
2019,11,28,09,47,14.10
2019,11,28,09,48,14.10
2019,11,28,09,49,14.10
2019,11,28,09,50,14.10
2019,11,28,09,51,14.10
2019,11,28,09,52,14.10
2019,11,28,09,53,14.10
2019,11,28,09,54,14.10
2019,11,28,09,55,14.10
2019,11,28,09,56,14.10
2019,11,28,09,57,14.10
2019,11,28,09,58,14.10
2019,11,28,09,59,14.10
2019,11,28,10,00,14.10
2019,11,28,10,01,14.10
2019,11,28,10,02,14.10
2019,11,28,10,03,14.00
2019,11,28,10,04,14.00
2019,11,28,10,05,14.10
2019,11,28,10,06,14.10
2019,11,28,10,07,14.10
2019,11,28,10,08,14.10
2019,11,28,10,09,14.10
2019,11,28,10,10,14.10
2019,11,28,10,11,14.10
2019,11,28,10,12,14.20
2019,11,28,10,13,14.20
2019,11,28,10,14,14.20
2019,11,28,10,15,14.20
2019,11,28,10,16,14.20
2019,11,28,10,17,14.20
2019,11,28,10,18,14.20
2019,11,28,10,19,14.30
2019,11,28,10,20,14.30
2019,11,28,10,21,14.40
2019,11,28,10,22,14.40
2019,11,28,10,23,14.50
2019,11,28,10,24,14.60
2019,11,28,10,25,14.60
2019,11,28,10,26,14.70
2019,11,28,10,27,14.70
2019,11,28,10,28,14.70
2019,11,28,10,29,14.80
2019,11,28,10,30,14.70
2019,11,28,10,31,14.70
2019,11,28,10,32,14.70
2019,11,28,10,33,14.70
2019,11,28,10,34,14.70
2019,11,28,10,35,14.70
2019,11,28,10,36,14.60
2019,11,28,10,37,14.60
2019,11,28,10,38,14.60
2019,11,28,10,39,14.60
2019,11,28,10,40,14.60
2019,11,28,10,41,14.60
2019,11,28,10,42,14.60
2019,11,28,10,43,14.60
2019,11,28,10,44,14.60
2019,11,28,10,45,14.70
2019,11,28,10,46,14.80
2019,11,28,10,47,14.80
2019,11,28,10,48,14.90
2019,11,28,10,49,15.00
2019,11,28,10,50,15.10
2019,11,28,10,51,15.30
2019,11,28,10,52,15.30
2019,11,28,10,53,15.40
2019,11,28,10,54,15.50
2019,11,28,10,55,15.50
2019,11,28,10,56,15.50
2019,11,28,10,57,15.50
2019,11,28,10,58,15.60
2019,11,28,10,59,15.60
2019,11,28,11,00,15.70
2019,11,28,11,01,15.70
2019,11,28,11,02,15.80
2019,11,28,11,03,15.80
2019,11,28,11,04,15.90
2019,11,28,11,05,15.90
2019,11,28,11,06,15.90
2019,11,28,11,07,16.00
2019,11,28,11,08,16.00
2019,11,28,11,09,16.10
2019,11,28,11,10,16.20
2019,11,28,11,11,16.30
2019,11,28,11,12,16.40
2019,11,28,11,13,16.50
2019,11,28,11,14,16.60
2019,11,28,11,15,16.80
2019,11,28,11,16,16.90
2019,11,28,11,17,17.10
2019,11,28,11,18,17.30
2019,11,28,11,19,17.40
2019,11,28,11,20,17.60
2019,11,28,11,21,17.90
2019,11,28,11,22,18.10
2019,11,28,11,23,18.30
2019,11,28,11,24,18.50
2019,11,28,11,25,18.80
2019,11,28,11,26,19.00
2019,11,28,11,27,19.20
2019,11,28,11,28,19.30
2019,11,28,11,29,19.50
2019,11,28,11,30,19.70
2019,11,28,11,31,19.90
2019,11,28,11,32,20.00
2019,11,28,11,33,20.10
2019,11,28,11,34,20.20
2019,11,28,11,35,20.40
2019,11,28,11,36,20.50
2019,11,28,11,37,20.60
2019,11,28,11,38,20.80
2019,11,28,11,39,20.90
2019,11,28,11,40,21.10
2019,11,28,11,41,21.30
2019,11,28,11,42,21.40
2019,11,28,11,43,21.50
2019,11,28,11,44,21.60
2019,11,28,11,45,21.70
2019,11,28,11,46,21.80
2019,11,28,11,47,21.90
2019,11,28,11,48,22.00
2019,11,28,11,49,22.10
2019,11,28,11,50,22.20
2019,11,28,11,51,22.20
2019,11,28,11,52,22.30
2019,11,28,11,53,22.40
2019,11,28,11,54,22.40
2019,11,28,11,55,22.50
2019,11,28,11,56,22.60
2019,11,28,11,57,22.60
2019,11,28,11,58,22.70
2019,11,28,11,59,22.80
2019,11,28,12,00,22.90
2019,11,28,12,01,23.00
2019,11,28,12,02,23.10
2019,11,28,12,03,23.20
2019,11,28,12,04,23.40
2019,11,28,12,05,23.50
2019,11,28,12,06,23.60
2019,11,28,12,07,23.70
2019,11,28,12,08,23.80
2019,11,28,12,09,23.90
2019,11,28,12,10,24.00
2019,11,28,12,11,24.10
2019,11,28,12,12,24.20
2019,11,28,12,13,24.20
2019,11,28,12,14,24.30
2019,11,28,12,15,24.30
2019,11,28,12,16,24.30
2019,11,28,12,17,24.30
2019,11,28,12,18,24.30
2019,11,28,12,19,24.20
2019,11,28,12,20,24.20
2019,11,28,12,21,24.10
2019,11,28,12,22,24.00
2019,11,28,12,23,24.00
2019,11,28,12,24,24.00
2019,11,28,12,25,23.90
2019,11,28,12,26,24.00
2019,11,28,12,27,23.90
2019,11,28,12,28,23.90
2019,11,28,12,29,23.90
2019,11,28,12,30,23.90
2019,11,28,12,31,23.90
2019,11,28,12,32,24.00
2019,11,28,12,33,24.00
2019,11,28,12,34,24.10
2019,11,28,12,35,24.20
2019,11,28,12,36,24.30
2019,11,28,12,37,24.30
2019,11,28,12,38,24.40
2019,11,28,12,39,24.50
2019,11,28,12,40,24.50
2019,11,28,12,41,24.50
2019,11,28,12,42,24.60
2019,11,28,12,43,24.60
2019,11,28,12,44,24.70
2019,11,28,12,45,24.70
2019,11,28,12,46,24.80
2019,11,28,12,47,24.90
2019,11,28,12,48,24.90
2019,11,28,12,49,25.00
2019,11,28,12,50,25.10
2019,11,28,12,51,25.20
2019,11,28,12,52,25.30
2019,11,28,12,53,25.40
2019,11,28,12,54,25.50
2019,11,28,12,55,25.60
2019,11,28,12,56,25.70
2019,11,28,12,57,25.80
2019,11,28,12,58,25.90
2019,11,28,12,59,26.00
2019,11,28,13,00,26.10
2019,11,28,13,01,26.20
2019,11,28,13,02,26.20
2019,11,28,13,03,26.20
2019,11,28,13,04,26.10
2019,11,28,13,05,26.10
2019,11,28,13,06,26.00
2019,11,28,13,07,26.00
2019,11,28,13,08,26.00
2019,11,28,13,09,26.00
2019,11,28,13,10,26.00
2019,11,28,13,11,26.00
2019,11,28,13,12,26.10
2019,11,28,13,13,26.10
2019,11,28,13,14,26.00
2019,11,28,13,15,26.00
2019,11,28,13,16,26.10
2019,11,28,13,17,26.10
2019,11,28,13,18,26.20
2019,11,28,13,19,26.20
2019,11,28,13,20,26.30
2019,11,28,13,21,26.40
2019,11,28,13,22,26.50
2019,11,28,13,23,26.70
2019,11,28,13,24,26.80
2019,11,28,13,25,26.90
2019,11,28,13,26,26.90
2019,11,28,13,27,26.90
2019,11,28,13,28,26.90
2019,11,28,13,29,26.90
2019,11,28,13,30,26.90
2019,11,28,13,31,26.90
2019,11,28,13,32,26.90
2019,11,28,13,33,26.90
2019,11,28,13,34,27.00
2019,11,28,13,35,27.00
2019,11,28,13,36,27.00
2019,11,28,13,37,27.00
2019,11,28,13,38,27.10
2019,11,28,13,39,27.10
2019,11,28,13,40,27.00
2019,11,28,13,41,27.00
2019,11,28,13,42,26.90
2019,11,28,13,43,26.80
2019,11,28,13,44,26.80
2019,11,28,13,45,26.70
2019,11,28,13,46,26.60
2019,11,28,13,47,26.60
2019,11,28,13,48,26.60
2019,11,28,13,49,26.60
2019,11,28,13,50,26.60
2019,11,28,13,51,26.70
2019,11,28,13,52,26.70
2019,11,28,13,53,26.80
2019,11,28,13,54,26.90
2019,11,28,13,55,26.90
2019,11,28,13,56,27.00
2019,11,28,13,57,27.10
2019,11,28,13,58,27.00
2019,11,28,13,59,26.90
2019,11,28,14,00,26.90
2019,11,28,14,01,26.80
2019,11,28,14,02,26.70
2019,11,28,14,03,26.60
2019,11,28,14,04,26.50
2019,11,28,14,05,26.40
2019,11,28,14,06,26.30
2019,11,28,14,07,26.30
2019,11,28,14,08,26.30
2019,11,28,14,09,26.30
2019,11,28,14,10,26.30
2019,11,28,14,11,26.20
2019,11,28,14,12,26.20
2019,11,28,14,13,26.20
2019,11,28,14,14,26.20
2019,11,28,14,15,26.20
2019,11,28,14,16,26.20
2019,11,28,14,17,26.10
2019,11,28,14,18,26.10
2019,11,28,14,19,26.10
2019,11,28,14,20,26.10
2019,11,28,14,21,26.10
2019,11,28,14,22,26.00
2019,11,28,14,23,26.00
2019,11,28,14,24,26.00
2019,11,28,14,25,25.90
2019,11,28,14,26,25.90
2019,11,28,14,27,25.80
2019,11,28,14,28,25.80
2019,11,28,14,29,25.70
2019,11,28,14,30,25.70
2019,11,28,14,31,25.70
2019,11,28,14,32,25.70
2019,11,28,14,33,25.60
2019,11,28,14,34,25.60
2019,11,28,14,35,25.60
2019,11,28,14,36,25.60
2019,11,28,14,37,25.60
2019,11,28,14,38,25.50
2019,11,28,14,39,25.50
2019,11,28,14,40,25.40
2019,11,28,14,41,25.40
2019,11,28,14,42,25.30
2019,11,28,14,43,25.30
2019,11,28,14,44,25.20
2019,11,28,14,45,25.20
2019,11,28,14,46,25.10
2019,11,28,14,47,25.00
2019,11,28,14,48,24.90
2019,11,28,14,49,24.90
2019,11,28,14,50,24.80
2019,11,28,14,51,24.80
2019,11,28,14,52,24.70
2019,11,28,14,53,24.60
2019,11,28,14,54,24.60
2019,11,28,14,55,24.50
2019,11,28,14,56,24.40
2019,11,28,14,57,24.30
2019,11,28,14,58,24.30
2019,11,28,14,59,24.20
2019,11,28,15,00,24.10
2019,11,28,15,01,24.00
2019,11,28,15,02,24.00
2019,11,28,15,03,23.90
2019,11,28,15,04,23.80
2019,11,28,15,05,23.70
2019,11,28,15,06,23.60
2019,11,28,15,07,23.50
2019,11,28,15,08,23.30
2019,11,28,15,09,23.20
2019,11,28,15,10,23.00
2019,11,28,15,11,22.90
2019,11,28,15,12,22.80
2019,11,28,15,13,22.60
2019,11,28,15,14,22.50
2019,11,28,15,15,22.40
2019,11,28,15,16,22.30
2019,11,28,15,17,22.20
2019,11,28,15,18,22.10
2019,11,28,15,19,22.00
2019,11,28,15,20,21.90
2019,11,28,15,21,21.90
2019,11,28,15,22,21.80
2019,11,28,15,23,21.80
2019,11,28,15,24,21.70
2019,11,28,15,25,21.60
2019,11,28,15,26,21.50
2019,11,28,15,27,21.40
2019,11,28,15,28,21.40
2019,11,28,15,29,21.30
2019,11,28,15,30,21.30
2019,11,28,15,31,21.20
2019,11,28,15,32,21.10
2019,11,28,15,33,21.00
2019,11,28,15,34,20.90
2019,11,28,15,35,20.80
2019,11,28,15,36,20.80
2019,11,28,15,37,20.70
2019,11,28,15,38,20.70
2019,11,28,15,39,20.60
2019,11,28,15,40,20.60
2019,11,28,15,41,20.50
2019,11,28,15,42,20.40
2019,11,28,15,43,20.40
2019,11,28,15,44,20.30
2019,11,28,15,45,20.20
2019,11,28,15,46,20.20
2019,11,28,15,47,20.10
2019,11,28,15,48,20.10
2019,11,28,15,49,20.00
2019,11,28,15,50,20.00
2019,11,28,15,51,19.90
2019,11,28,15,52,19.80
2019,11,28,15,53,19.80
2019,11,28,15,54,19.70
2019,11,28,15,55,19.60
2019,11,28,15,56,19.50
2019,11,28,15,57,19.50
2019,11,28,15,58,19.40
2019,11,28,15,59,19.40
2019,11,28,16,00,19.30
2019,11,28,16,01,19.30
2019,11,28,16,02,19.30
2019,11,28,16,03,19.20
2019,11,28,16,04,19.20
2019,11,28,16,05,19.20
2019,11,28,16,06,19.20
2019,11,28,16,07,19.20
2019,11,28,16,08,19.20
2019,11,28,16,09,19.20
2019,11,28,16,10,19.20
2019,11,28,16,11,19.10
2019,11,28,16,12,19.10
2019,11,28,16,13,19.00
2019,11,28,16,14,19.00
2019,11,28,16,15,18.90
2019,11,28,16,16,18.90
2019,11,28,16,17,18.80
2019,11,28,16,18,18.70
2019,11,28,16,19,18.60
2019,11,28,16,20,18.50
2019,11,28,16,21,18.50
2019,11,28,16,22,18.40
2019,11,28,16,23,18.40
2019,11,28,16,24,18.30
2019,11,28,16,25,18.30
2019,11,28,16,26,18.20
2019,11,28,16,27,18.20
2019,11,28,16,28,18.10
2019,11,28,16,29,18.10
2019,11,28,16,30,18.10
2019,11,28,16,31,18.00
2019,11,28,16,32,17.90
2019,11,28,16,33,17.90
2019,11,28,16,34,17.80
2019,11,28,16,35,17.70
2019,11,28,16,36,17.70
2019,11,28,16,37,17.60
2019,11,28,16,38,17.60
2019,11,28,16,39,17.50
2019,11,28,16,40,17.50
2019,11,28,16,41,17.40
2019,11,28,16,42,17.30
2019,11,28,16,43,17.30
2019,11,28,16,44,17.30
2019,11,28,16,45,17.20
2019,11,28,16,46,17.20
2019,11,28,16,47,17.10
2019,11,28,16,48,17.10
2019,11,28,16,49,17.10
2019,11,28,16,50,17.00
2019,11,28,16,51,17.00
2019,11,28,16,52,17.00
2019,11,28,16,53,16.90
2019,11,28,16,54,16.90
2019,11,28,16,55,16.90
2019,11,28,16,56,16.90
2019,11,28,16,57,16.80
2019,11,28,16,58,16.80
2019,11,28,16,59,16.80
2019,11,28,17,00,16.70
2019,11,28,17,01,16.70
2019,11,28,17,02,16.60
2019,11,28,17,03,16.60
2019,11,28,17,04,16.60
2019,11,28,17,05,16.50
2019,11,28,17,06,16.40
2019,11,28,17,07,16.40
2019,11,28,17,08,16.40
2019,11,28,17,09,16.30
2019,11,28,17,10,16.30
2019,11,28,17,11,16.30
2019,11,28,17,12,16.30
2019,11,28,17,13,16.30
2019,11,28,17,14,16.30
2019,11,28,17,15,16.30
2019,11,28,17,16,16.30
2019,11,28,17,17,16.30
2019,11,28,17,18,16.30
2019,11,28,17,19,16.20